Weather observations for the past three days for
Springfield, Hartness State Springfield Airport
Imperial (Metric)
Date Time (edt) Wind (mph) Vis. (mi.) Weather Sky Cond. Temperature (ºF) Relative Humidity Wind Chill (°F) Heat Index (°F) Pressure Precipitation (in)
Air Dwpt 6 hour altimeter (in) sea level (mb) 1 hr 3 hr 6 hr
Max. Min.
25 02:54 Calm 10.00 Fair CLR 55 53.1 93% 29.8 1008.9
25 01:54 Calm 10.00 Fair CLR 55.9 53.1 69.1 55.9 90% 29.79 1008.8
25 00:54 Calm 10.00 Fair CLR 57.9 54 87% 29.79 1008.6
24 23:54 Calm 10.00 Fair CLR 61 54 78% 29.76 1007.7
24 22:54 NE 3 10.00 Fair CLR 64 53.1 68% 29.75 1007.3
24 21:54 N 10 G 21 10.00 Mostly Cloudy BKN100 68 50 53% 29.75 1007.1
24 20:54 N 9 G 24 10.00 Fair CLR 68 51.1 55% 29.72 1006.3
24 19:54 NW 16 G 26 10.00 Mostly Cloudy BKN110 68 53.1 73.9 66.9 59% 29.69 1005.3 0.01
24 18:54 NW 15 G 29 10.00 Overcast SCT025 BKN049 OVC110 66.9 55.9 68% 29.66 1004.1
24 17:54 N 8 10.00 Overcast SCT027 BKN043 OVC050 66.9 60.1 79% 29.62 1002.8 0.01
24 16:54 NW 7 G 18 10.00 Overcast OVC034 70 57.9 66% 29.59 1001.9
24 15:54 W 12 G 21 10.00 Overcast FEW030 BKN045 OVC080 72 59 64% 29.57 1001.1
24 14:54 NW 9 10.00 Overcast OVC065 71.1 57 61% 29.56 1000.9
24 13:54 NW 8 10.00 Overcast FEW031 SCT048 OVC065 70 60.1 73 68 71% 29.56 1000.7
24 12:54 W 7 10.00 Overcast BKN055 OVC070 71.1 57 61% 29.55 1000.5
24 11:54 W 9 10.00 Overcast BKN050 OVC065 71.1 55.9 59% 29.54 1000.1
24 10:54 SW 5 10.00 Overcast BKN043 OVC050 71.1 55 57% 29.53 999.8
24 09:54 SW 14 10.00 Mostly Cloudy SCT040 BKN050 72 55 55% 29.52 999.4
24 08:54 SW 10 10.00 Mostly Cloudy SCT039 BKN047 BKN060 70 55.9 61% 29.52 999.3
24 07:54 Vrbl 3 10.00 Overcast OVC050 68 57 71.1 66 68% 29.52 999.5
24 06:54 SW 3 10.00 Overcast OVC047 66.9 57 71% 29.52 999.4
24 05:54 W 12 10.00 Overcast BKN037 OVC045 68 57 68% 29.52 999.5
24 04:54 SW 5 10.00 Partly Cloudy SCT065 70 61 73% 29.49 998.4
24 03:54 Calm 10.00 Overcast BKN040 OVC050 70 66.9 90% 29.47 997.7
24 02:54 Calm 4.00 Fog/Mist SCT080 BKN100 68 66 93% 29.46 997.3
24 01:54 Calm 1.25 Fog/Mist FEW004 SCT037 BKN060 69.1 66.9 75.9 69.1 93% 29.47 997.6 0.07
24 00:54 Calm 6.00 Fog/Mist BKN040 BKN050 70 68 93% 29.46 997.5
23 23:54 W 3 5.00 Fog/Mist FEW040 SCT046 BKN080 70 68 93% 29.48 997.9
23 22:54 Calm 3.00 Fog/Mist FEW002 SCT060 SCT090 71.1 69.1 94% 29.48 998.2 0.07
23 21:54 Calm 8.00 A Few Clouds FEW080 72 69.1 91% 29.49 998.5
23 20:54 Calm 9.00 Mostly Cloudy FEW060 SCT070 BKN110 73.9 71.1 91% 29.5 998.6 0.07
23 19:54 S 3 8.00 Thunderstorm in Vicinity Light Rain FEW025 SCT047 OVC095 75.9 72 78.1 73.9 88% 76 29.5 998.6 0.11 0.42
23 18:54 Calm 5.00 Light Rain Fog/Mist FEW037 SCT055 BKN110 75.9 73 91% 76 29.47 997.8 0.01
23 17:54 S 6 10.00 Partly Cloudy SCT070 78.1 72 82% 80 29.49 998.4
23 16:54 Calm 10.00 Fair CLR 75.9 71.1 85% 76 29.51 999.1 0.29 0.3
23 15:54 NW 6 4.00 Thunderstorm Light Rain Fog/Mist OVC010 75 71.1 88% 75 29.56 1000.8 0.01
23 14:54 Vrbl 5 10.00 Overcast OVC011 75.9 69.1 79% 77 29.57 1001.1
23 13:54 Vrbl 3 10.00 Overcast OVC011 73.9 68 73.9 63 82% 29.62 1002.8 0.01
23 12:54 S 7 10.00 Overcast OVC009 72 66 82% 29.65 1004.0
23 11:54 S 6 10.00 Overcast OVC007 69.1 64.9 87% 29.69 1005.3
23 10:54 S 6 10.00 Overcast OVC006 66.9 64 91% 29.72 1006.5 0.01
23 09:54 Vrbl 5 9.00 Overcast OVC006 64.9 62.1 90% 29.76 1007.7
23 08:54 Calm 9.00 Overcast OVC007 63 61 93% 29.79 1008.7 0.01
23 07:54 Calm 3.00 Fog/Mist OVC006 63 61 63 62.1 93% 29.82 1009.6 0.02
23 06:54 Calm 4.00 Light Rain Fog/Mist OVC006 62.1 60.1 93% 29.84 1010.3 0.02
23 05:54 Vrbl 6 7.00 Overcast OVC004 62.1 60.1 93% 29.85 1010.8
23 04:54 S 3 2.50 Fog/Mist OVC006 62.1 60.1 93% 29.88 1011.6
23 03:54 Calm 10.00 Overcast OVC007 63 60.1 90% 29.91 1012.7
23 02:54 Calm 10.00 Overcast OVC009 63 60.1 90% 29.94 1013.6
23 01:54 SE 3 10.00 Overcast OVC007 63 60.1 66 63 90% 29.95 1014.2 0.01 0.02
23 00:54 Vrbl 3 8.00 Light Rain OVC005 63 61 93% 29.97 1014.8 0.01
22 23:54 SE 3 9.00 Overcast OVC009 64 61 90% 29.99 1015.5
22 22:54 Calm 10.00 Overcast BKN006 OVC010 64 61 90% 30.01 1016.1
22 21:54 Calm 10.00 Overcast OVC011 64.9 61 87% 30.01 1016.2
22 20:54 Calm 10.00 Overcast OVC013 64.9 61 87% 30.01 1016.1
22 19:54 Calm 10.00 Overcast BKN011 OVC017 66 62.1 68 64.9 87% 30.02 1016.3
22 18:54 Calm 10.00 Light Rain OVC015 66 62.1 87% 30.02 1016.4
22 17:54 Calm 10.00 Light Rain OVC013 66 61 84% 30.01 1016.3
22 16:54 Calm 10.00 Overcast BKN017 OVC021 66 61 84% 30.01 1016.3
22 15:54 NE 3 10.00 Overcast SCT014 OVC022 66.9 61 81% 30.04 1017.0
22 14:54 NE 5 10.00 Overcast OVC021 66.9 62.1 84% 30.04 1017.2
22 13:54 Vrbl 3 7.00 Light Rain SCT009 OVC017 66 62.1 68 64.9 87% 30.05 1017.3 0.03 0.05
22 12:54 Vrbl 7 6.00 Light Rain OVC012 66 61 84% 30.07 1018.1 0.01
22 11:54 NE 6 10.00 Overcast BKN009 OVC013 66 62.1 87% 30.07 1018.1
22 10:54 Calm 9.00 Overcast BKN009 OVC014 66.9 63 87% 30.07 1018.2 0.01 0.01
22 09:54 NE 7 10.00 Overcast OVC010 66.9 62.1 84% 30.07 1018.2
22 08:54 E 3 5.00 Fog/Mist OVC006 68 64 87% 30.07 1018.2
22 07:54 Calm 9.00 Overcast OVC004 66.9 64 68 66 91% 30.07 1018.2
22 06:54 Calm 5.00 Fog/Mist OVC003 66.9 64 91% 30.07 1018.1
22 05:54 Calm 6.00 Fog/Mist OVC004 66 64 93% 30.07 1017.9
22 04:54 Calm 9.00 Overcast OVC004 66 64 93% 30.06 1017.8
22 03:54 SE 5 10.00 Overcast OVC008 66 63 90% 30.07 1017.9
Date Time (edt) Wind (mph) Vis. (mi.) Weather Sky Cond. Air Dwpt Max. Min. Relative Humidity Wind Chill (°F) Heat Index (°F) altimeter (in) sea level (mb) 1 hr 3 hr 6 hr
6 hour
Temperature (ºF) Pressure Precipitation (in)